Location: Mt. Graham
(32.7020°N, 109.8880°W)
Time: 13:48:38
(UTC-07:00)

Envisat - Visible Passes

Search period start: 22 February 2018 00:00
Search period end: 04 March 2018 00:00
Orbit: 764 x 766 km, 98.2° (Epoch: 22 February)

Date Brightness Start Highest point End Pass type
(mag) Time Alt. Az. Time Alt. Az. Time Alt. Az.
22 Feb 3.0 19:35:11 10° SSE 19:40:06 55° ENE 19:45:03 10° N visible
22 Feb 5.8 21:17:06 10° WSW 21:19:23 13° W 21:21:40 10° WNW visible
23 Feb 4.1 18:59:42 10° ESE 19:03:38 23° ENE 19:07:35 10° NNE visible
23 Feb 4.6 20:37:56 10° SSW 20:42:25 32° W 20:46:56 10° NW visible
24 Feb 3.0 20:00:35 10° S 20:05:38 80° WSW 20:10:43 10° NNW visible
25 Feb 3.3 19:24:18 10° SE 19:29:01 42° ENE 19:33:47 10° N visible
25 Feb 5.5 21:04:54 10° SW 21:08:10 17° W 21:11:26 10° NW visible
26 Feb 4.3 18:49:13 10° ESE 18:52:36 18° ENE 18:56:00 10° NNE visible
26 Feb 4.1 20:26:29 10° S 20:31:15 41° W 20:36:02 10° NNW visible
27 Feb 2.8 19:49:28 10° SSE 19:54:30 80° ENE 19:59:35 10° N visible
28 Feb 3.6 19:13:29 10° SE 19:17:58 33° ENE 19:22:26 10° N visible
28 Feb 5.2 20:53:03 10° SSW 20:56:57 22° W 21:00:52 10° NW visible
01 Mar 4.6 18:38:59 10° E 18:41:36 14° ENE 18:44:12 10° NE visible
01 Mar 3.6 20:15:09 10° S 20:20:05 54° W 20:25:03 10° NNW visible
02 Mar 2.9 19:38:26 10° SSE 19:43:24 61° ENE 19:48:24 10° N visible
02 Mar 5.9 21:21:06 10° WSW 21:22:44 11° W 21:24:23 10° WNW visible
03 Mar 4.0 19:02:47 10° SE 19:06:54 26° ENE 19:11:01 10° NNE visible
03 Mar 4.8 20:41:25 10° SSW 20:45:45 29° W 20:50:07 10° NW visible
